Location: Asbacherhof
(48.8543°N, 10.7903°E)
Time: 22:04:54
(UTC+00:00)

Cosmos 2074 Rocket - Pass Details

Date: 26 May 2022
Orbit: 968 x 985 km, 82.9° (Epoch: 29 June)

Event Time Altitude Azimuth Distance (km) Brightness Sun altitude
Rises 01:19:34 0° 349° (NNW) 3,701 7.8 -14.6°
Reaches altitude 10° 01:22:05 10° 347° (NNW) 2,750 7.0 -14.4°
Maximum altitude 01:28:22 72° 265° (W) 1,038 4.0 -13.9°
Enters shadow 01:33:59 13° 183° (S) 2,508 5.6 -13.4°
